Погода в Гисборне

Новая Зеландия     38°40′04″S   178°01′37″E
темп.,
°C
ветер,
м/с
пор.,
м/с
влажн.,
%
обл.,
%
осадки,
мм/ч
давл.,
гПа
погр.,
м
29 июля, чт
чт2900:00+9зсз34811 0.0 1017146
03:00+9сз33835 0.0 1017137
06:00+9сз34825 0.0 1017128
09:00+10сз33730 0.0 1018153
12:00+12в11630 0.0 1018257
15:00+11юв33750 0.0 1017246
18:00+12всв12753 0.0 1017266
21:00+10ссз338320 0.0 1018139
30 июля, пт
пт3000:00+10сз33839 0.0 1018138
03:00+9сз33835 0.0 1017138
06:00+9сз34845 0.0 1018137
09:00+10ссз34813 0.0 1019160
12:00+13всв23695 0.0 1017234
15:00+13всв55765 0.0 1015289
18:00+13св35811 0.0 1015297
21:00+11ссз23853 0.0 1015123
31 июля, сб
сб3100:00+11сз33853 0.0 1015111
03:00+10сз33812 0.0 1013115
06:00+10сз34812 0.0 1013128
09:00+10ссз33770 0.0 1013142
12:00+12в12765 0.0 1012226
15:00+13всв468525 0.0 1009388
18:00+13св378925 0.0 1010405
21:00+12с2390100 0.1 1011182
1 августа, вс
вс100:00+11сз3390100 0.1 1011112
03:00+12зсз228596 0.0 101197
06:00+13зсз2180100 0.0 101185
09:00+12ссз2282100 0.1 1011158
12:00+14всв2380100 0.1 1011386
15:00+14всв4478100 0.0 1009395
18:00+13св3581100 0.0 1010345
21:00+12ссз3386100 0.0 1010166
2 августа, пн
пн200:00+11ссз238899 0.0 1010138
03:00+10сз228815 0.0 1009115
06:00+10сз33874 0.0 1009135
09:00+10сз33843 0.0 1009150
12:00+12в22751 0.0 1008230
15:00+13всв44760 0.0 1005334
18:00+12ссв33765 0.0 1004229
21:00+11сз5881100 0.1 1003234